sat.trackr.live / text

‹ back to catalog

ASTRA 1M

NORAD 33436 · 2008-057A

PAYLOAD ACTIVE UNKNOWN

§ Identity

Operator
Country
SES
Launch date
2008-11-05
Launch site
TYMSC
Launch vehicle
Mass (kg)
RCS (m²)
10.02

Purposes: comms

External: N2YO · Heavens-Above · Gunter

§ Orbital elements

Epoch: 2026-05-25T03:50:09.230784Z

Period
1,436.04 min
Inclination
0.2389°
Eccentricity
0.0004831
Mean motion
1.00275692 rev/d
Perigee alt
35,765.1 km
Apogee alt
35,805.9 km
Semi-major
42,163.6 km
B*
0.0000e+0
RAAN
81.9435°
Arg perigee
13.6200°
Mean anomaly
224.1446°
Rev number
4,550

§ Raw data

ASTRA 1M1 33436U 08057A   26145.15982906  .00000119  00000+0  00000+0 0  99962 33436   0.2389  81.9435 0004831  13.6200 224.1446  1.00275692 45500

JSON: /api/v1/satellites/33436 · /tle

For live sub-satellite position, see the globe view (requires WebGL).

§ Visibility from observer

Set your observer location to see the next 7 days of passes ≥ 10°. The values pass through the URL so the page stays shareable.

No JS? Fill the form by hand. The geolocation button needs JavaScript.